User: anonymous   Login
Location: Ar Ranvel
(48.3000°N, 4.8833°W)
Time: 12:55:01
(UTC+00:00)
Language:

Cosmos 1110 Rocket - Orbit

View from above orbital plane
View from above orbital plane
View from above satellite
View from above satellite

Ground track
Ground track

The orbit data is extracted from the following two-line orbital elements,

1 11427U 79060B   21266.12019736 -.00000011  00000-0  51490-5 0  9990
2 11427  74.0187  35.3685 0019674 164.5256 195.6504 14.37470703211910
Epoch (UTC): 23 September 2021 02:53:05
Eccentricity: 0.0019674
inclination: 74.0187°
perigee height: 753 km
apogee height: 781 km
right ascension of ascending node: 35.3685°
argument of perigee: 164.5256°
revolutions per day: 14.37470703
mean anomaly at epoch: 195.6504°
orbit number at epoch: 21191

The dashed part of the orbit path shows where the satellite is in the earth's shadow,  

DLR